Weather Roundup
Issued by NWS Chicago, IL

Home | Current Version | Previous Version | Graphics & Text | Print | Product List | Glossary On
Versions: 1 2 3 4 5 6 7 8 9 10 11 12 13 14 15 16 17 18 19 20 21 22 23 24 25 26 27 28 29 30 31 32 33 34 35 36 37 38 39 40 41 42 43 44 45 46 47 48 49 50
000
NZUS59 KLOT 020910
HRRLOT

CHICAGO AREA WEATHER ROUNDUP
NATIONAL WEATHER SERVICE CHICAGO/ROMEOVILLE IL
400 AM CDT TUE SEP 02 2014

NOTE: "FAIR" INDICATES FEW OR NO CLOUDS BELOW 12,000 FEET WITH NO
SIGNIFICANT WEATHER AND/OR OBSTRUCTIONS TO VISIBILITY.

* THESE STATIONS ARE NOT UNDER NWS QUALITY CONTROL. THEY ALSO MAY NOT
  REPORT WEATHER SUCH AS PRECIPITATION OR FOG.

ILZ005-006-012>014-019>023-021000-
NORTHEAST ILLINOIS

CITY           SKY/WX    TMP DP  RH WIND       PRES   REMARKS
OHARE          MOCLDY    69  64  84 W6        29.87S
MIDWAY         CLOUDY    71  68  90 W5        29.87R
AURORA         MOCLDY    66  63  90 SE3       29.89R FOG
LANSING*         N/A    N/A N/A N/A MISG        N/A
JOLIET*        CLOUDY    67  65  91 CALM      29.89S
WAUKEGAN       PTCLDY    66  64  93 CALM      29.86R
DUPAGE AIRPORT MOCLDY    66  65  96 S5        29.88R FOG
WHEELING       PTCLDY    70  66  87 NW3       29.88S
KANKAKEE*      CLOUDY    69  67  94 SW6       29.89R
MORRIS*        CLOUDY    68  68 100 CALM      29.89R
LEWIS AIRPORT* CLOUDY    67  66  99 SW3       29.89R
NORTHERLY IS     N/A     72  66  81 W6          N/A
$$

WIZ051-052-058>065-066-070>072-021000-
SOUTHEAST WISCONSIN

CITY           SKY/WX    TMP DP  RH WIND       PRES   REMARKS
MILWAUKEE      PTCLDY    67  63  87 W5        29.86R
KENOSHA*       FOG       63  62  97 W3        29.87S VSB 1
RACINE*        PTCLDY    66  63  90 W5        29.88R
BURLINGTON     CLEAR     59  59 100 CALM      29.87S FOG
WAUKESHA       CLEAR     59  59 100 CALM      29.88R
WEST BEND      FOG       59  57  94 CALM      29.86S VSB 1/2
$$

INZ001>003-010>013-019-020-021000-
NORTHWEST INDIANA

CITY           SKY/WX    TMP DP  RH WIND       PRES   REMARKS
GARY*          CLOUDY    72  67  86 SW3       29.88R
MICHIGAN CITY* NOT AVBL
RENSSELAER*    NOT AVBL
VALPARAISO     CLOUDY    68  66  93 SW8       29.89R
$$

LMZ740>746-021000-
SOUTHERN LAKE MICHIGAN

STATION/POSITION TIME  SKY/WX   TEMP WIND        PRES    VSBY
                                AIR  DIR/SP/G
                 (UTC)          (F)  (DEG/KT/KT) (MB)    (MI)
HARRISON CRIB    0900            72  280/  7/  8   N/A
BURNHAM HARBOR   0900            72  240/  4/  7   N/A
CALUMET HARBOR   0900            71  260/  2/  4 1010.2R
BURNS HARBOR     NOT AVBL
MICHIGAN CITY    0900            71  250/  8/ 10   N/A
$$

ABBREVIATIONS USED IN REMARKS
   TC - TEMPERATURE IN CELSIUS
  WCI - WIND CHILL INDEX
   HX - HEAT INDEX
  VSB - VISIBILITY
$$



USA.gov is the U.S. government's official web portal to all federal, state and local government web resources and services.